Regional Weather Roundup
Issued by NWS Green Bay, WI

Home | Current Version | Previous Version | Text Only | Print | Product List | Glossary On
Versions: 1 2 3 4 5 6 7 8 9 10 11 12 13 14 15 16 17 18 19 20 21 22 23 24 25 26 27 28 29 30 31 32 33 34 35 36 37 38 39 40 41 42 43 44 45 46 47 48 49 50
000
ASUS43 KGRB 150910
RWRGRB

NORTH-CENTRAL AND NORTHEAST WISCONSIN REGIONAL WEATHER ROUNDUP
NATIONAL WEATHER SERVICE GREEN BAY WI
400 AM CDT MON SEP 15 2014

WIZ005-009-010>012-018-019-151000-
NORTH CENTRAL WISCONSIN

CITY           SKY/WX    TMP DP  RH WIND       PRES   REMARKS
IRONWOOD       CLEAR     39  39 100 CALM      30.08S
MANITOWISH WTR FOG       33  33 100 CALM      30.11S VSB 3/4
ARBOR VITAE    CLEAR     38  37  92 CALM      30.10F
EAGLE RIVER    FOG       36  36 100 CALM      30.10S VSB 3/4
LAND O LAKES   CLEAR     32  32 100 CALM      30.11S
RHINELANDER    PTCLDY    38  37  97 CALM      30.12F FOG
PHILLIPS       PTCLDY    38  38 100 CALM      30.11S
ANTIGO         CLOUDY    45  44  95 CALM      30.12S
TOMAHAWK       MOCLDY    37  36  96 CALM      30.12F
MERRILL        CLOUDY    44  44 100 CALM      30.12S
$$

WIZ013-073-151000-
NORTHEAST WISCONSIN

CITY           SKY/WX    TMP DP  RH WIND       PRES   REMARKS
IRON MOUNTAIN  PTCLDY    40  38  93 N3        30.09S
MARINETTE      CLOUDY    50  45  81 NW3       30.10S
OCONTO         CLOUDY    50  48  92 CALM      30.11S
$$

WIZ017-030-035>037-045-151000-
CENTRAL WISCONSIN

CITY           SKY/WX    TMP DP  RH WIND       PRES   REMARKS
MEDFORD        DRIZZLE   46  45  95 CALM      30.12S
WAUSAU         CLOUDY    50  45  83 CALM      30.11S
MOSINEE        DRIZZLE   48  46  93 CALM      30.12F
MARSHFIELD     CLOUDY    50  48  93 CALM      30.11F
WISC RAPIDS    LGT RAIN  51  49  92 CALM      30.12F
STEVENS POINT  DRIZZLE   49  48  95 CALM      30.12F
WAUPACA        LGT RAIN  54  51  91 CALM      30.12F
SHAWANO        DRIZZLE   52  47  83 W3        30.12S
CLINTONVILLE   RAIN      52  48  87 CALM      30.12S
$$

WIZ038-039-048-051-151000-
FOX VALLEY

CITY           SKY/WX    TMP DP  RH WIND       PRES   REMARKS
NWS GREEN BAY  RAIN      53  51  93 SW6       30.12S
APPLETON       CLOUDY    52  48  87 NW5       30.13S
OSHKOSH        CLOUDY    53  50  89 SW3       30.12F
FOND DU LAC    CLOUDY    53  48  83 SW6       30.13S
$$

WIZ022-050-052-151000-
EAST CENTRAL WISCONSIN

CITY           SKY/WX    TMP DP  RH WIND       PRES   REMARKS
STURGEON BAY   CLOUDY    54  46  76 W3        30.12R
MANITOWOC      CLOUDY    55  52  89 W5        30.12S
SHEBOYGAN      CLOUDY    52  48  86 W3        30.12F
$$

LMZ563-521-522-541>543-151000-
LAKESHORE

STATION/POSITION TIME  TEMP    WIND        PRES    VSBY  WAVE
                       AIR SEA DIR/SP/G                  HT/PER
                 (UTC) (F)     (DEG/KT/KT) (MB)    (MI)  (FT/S)
SHEBOYGAN LKSHOR 0900   56 49  260/  8/ 10 1020.2F
KEWAUNEE LKSHORE 0900   54     310/  3/  5 1018.8S
NORTHPORT PIER   0900   53     260/  3/  4 1019.3S
N MID LAKE BUOY  0900   57 57  300/ 10/ 10 1019.0F         4/ 7
S GREEN BAY BUOY 0900   56     VRB 10/ 12  1020.6R
CHAMBERS ISLAND  0900   53      CALM  /  5 1019.6S
MENOMINEE LKSHOR 0900   52     270/  4/  6 1020.0R
$$



USA.gov is the U.S. government's official web portal to all federal, state and local government web resources and services.